Date String (YYYY-MM-DD hh:mm:ss) UTC,Instrument flags,Ambient pressure (hPa),Sample flow (lpm),Bypass flow (lpm),Sample temperature (°C),Ambient temperature (°C),ASC tube jacket temperature (°C),LED temperature (°C),Box temperature (°C),Sample RH (%),Span deviation,Mass concentration (μg/m³),Mass concentration (μg/m³),Mass concentration (μg/m³)
DateTimeUTC,F1_M11,P_M11,Q1_M11,Q2_M11,T1_M11,T2_M11,T3_M11,T4_M11,T5_M11,U1_M11,ZSPAN_M11,X0_M11,X2_M11,X1_M11
2022-01-27 15:00:00,,0832.1,5.01,0.00,21.5,22.2,00.0,30.4,23.3,09.2,0000.0,0008.34,0005.00,0004.59
2022-01-27 15:01:00,,0832.2,4.99,0.00,21.7,22.9,00.0,30.5,23.7,09.2,0000.0,0008.65,0005.22,0004.79
2022-01-27 15:02:00,,0832.3,5.01,0.00,21.8,22.8,00.0,30.5,23.7,09.2,0000.0,0008.87,0005.37,0004.95
2022-01-27 15:03:00,,0832.3,4.99,0.00,21.8,22.5,00.0,30.5,23.6,09.2,0000.0,0009.10,0005.55,0005.11
2022-01-27 15:04:00,,0832.3,5.00,0.00,21.8,22.2,00.0,30.6,23.6,09.2,0000.0,0009.29,0005.71,0005.25
2022-01-27 15:05:00,,0832.4,5.00,0.00,21.8,21.9,00.0,30.6,23.5,09.2,0000.0,0009.54,0005.84,0005.37
2022-01-27 15:06:00,,0832.4,5.01,0.00,21.8,21.8,00.0,30.6,23.4,09.2,0000.0,0010.09,0005.99,0005.47
2022-01-27 15:07:00,,0832.4,4.99,0.00,21.7,21.6,00.0,30.6,23.4,09.2,0000.0,0010.77,0006.12,0005.58
2022-01-27 15:08:00,,0832.4,5.01,0.00,21.7,21.5,00.0,30.6,23.4,09.2,0000.0,0011.40,0006.21,0005.65
2022-01-27 15:09:00,,0832.5,5.01,0.00,21.7,21.4,00.0,30.6,23.3,09.1,0000.0,0011.52,0006.26,0005.68
2022-01-27 15:10:00,,0832.5,4.98,0.00,21.7,21.3,00.0,30.6,23.3,09.2,0000.0,0011.61,0006.31,0005.68
2022-01-27 15:11:00,,0832.5,5.01,0.00,21.6,21.2,00.0,30.6,23.2,09.1,0000.0,0011.55,0006.35,0005.70
2022-01-27 15:12:00,,0832.5,5.01,0.00,21.6,21.1,00.0,30.6,23.2,09.1,0000.0,0011.91,0006.42,0005.76
2022-01-27 15:13:00,,0832.5,5.00,0.00,21.6,21.0,00.0,30.6,23.2,09.1,0000.0,0012.48,0006.51,0005.80
2022-01-27 15:14:00,,0832.5,5.01,0.00,21.6,21.1,00.0,30.6,23.2,09.1,0000.0,0012.74,0006.58,0005.84
2022-01-27 15:15:00,,0832.5,5.00,0.00,21.7,21.9,00.0,30.6,23.4,09.1,0000.0,0012.72,0006.60,0005.89
2022-01-27 15:16:00,,0832.5,5.01,0.00,21.9,22.8,00.0,30.7,23.8,09.1,0000.0,0013.95,0006.59,0005.93
2022-01-27 15:17:00,,0832.6,5.00,0.00,22.0,23.0,00.0,30.7,24.0,09.0,0000.0,0013.98,0006.60,0005.96
2022-01-27 15:18:00,,0832.6,5.01,0.00,22.0,22.7,00.0,30.7,24.0,09.0,0000.0,0013.55,0006.64,0006.00
2022-01-27 15:19:00,,0832.6,4.99,0.00,22.0,22.5,00.0,30.8,23.9,09.0,0000.0,0013.85,0006.68,0006.08
2022-01-27 15:20:00,,0832.7,4.99,0.00,22.0,22.2,00.0,30.8,23.8,09.0,0000.0,0014.10,0006.73,0006.17
2022-01-27 15:21:00,,0832.7,4.99,0.00,22.0,22.0,00.0,30.8,23.8,09.0,0000.0,0014.81,0006.81,0006.28
2022-01-27 15:22:00,,0832.7,5.01,0.00,22.0,21.8,00.0,30.8,23.7,09.0,0000.0,0014.88,0006.87,0006.38
2022-01-27 15:23:00,,0832.7,5.00,0.00,22.0,21.6,00.0,30.8,23.7,09.0,0000.0,0014.64,0006.93,0006.46
2022-01-27 15:24:00,,0832.8,5.00,0.00,21.9,21.5,00.0,30.8,23.6,09.1,0000.0,0014.32,0006.98,0006.55
2022-01-27 15:25:00,,0832.7,5.00,0.00,21.9,21.4,00.0,30.8,23.6,09.1,0000.0,0014.35,0007.02,0006.61
2022-01-27 15:26:00,,0832.7,5.01,0.00,21.9,21.3,00.0,30.8,23.5,09.2,0000.0,0014.37,0007.09,0006.68
2022-01-27 15:27:00,,0832.8,4.98,0.00,21.9,21.3,00.0,30.8,23.5,09.2,0000.0,0013.08,0007.18,0006.75
2022-01-27 15:28:00,,0832.9,5.00,0.00,21.8,21.3,00.0,30.8,23.5,09.2,0000.0,0012.90,0007.28,0006.86
2022-01-27 15:29:00,,0832.9,5.01,0.00,21.8,21.2,00.0,30.8,23.4,09.2,0000.0,0012.89,0007.34,0006.94
2022-01-27 15:30:00,,0832.9,5.00,0.00,21.8,21.2,00.0,30.7,23.4,09.3,0000.0,0012.27,0007.38,0007.00
2022-01-27 15:31:00,,0832.9,5.00,0.00,21.7,21.1,00.0,30.7,23.3,09.3,0000.0,0012.15,0007.47,0007.06
2022-01-27 15:32:00,,0833.0,4.99,0.00,21.7,21.5,00.0,30.7,23.4,09.4,0000.0,0011.66,0007.52,0007.10
2022-01-27 15:33:00,,0833.0,5.01,0.00,21.9,22.3,00.0,30.8,23.7,09.3,0000.0,0011.61,0007.54,0007.14
2022-01-27 15:34:00,,0833.1,4.99,0.00,22.0,23.0,00.0,30.8,24.0,09.3,0000.0,0012.05,0007.56,0007.18
2022-01-27 15:35:00,,0833.0,5.00,0.00,22.1,23.0,00.0,30.9,24.1,09.2,0000.0,0012.15,0007.59,0007.22
2022-01-27 15:36:00,,0833.1,5.00,0.00,22.1,22.7,00.0,30.9,24.0,09.2,0000.0,0012.24,0007.63,0007.27
2022-01-27 15:37:00,,0833.1,5.00,0.00,22.1,22.4,00.0,30.9,23.9,09.3,0000.0,0012.47,0007.69,0007.33
2022-01-27 15:38:00,,0833.1,4.99,0.00,22.1,22.2,00.0,30.9,23.9,09.2,0000.0,0012.47,0007.71,0007.37
2022-01-27 15:39:00,,0833.1,5.01,0.00,22.1,22.0,00.0,30.9,23.8,09.2,0000.0,0012.44,0007.73,0007.41
2022-01-27 15:40:00,,0833.1,4.98,0.00,22.1,21.8,00.0,30.9,23.7,09.3,0000.0,0012.52,0007.79,0007.45
2022-01-27 15:41:00,,0833.2,5.01,0.00,22.0,21.7,00.0,30.9,23.7,09.4,0000.0,0012.63,0007.85,0007.50
2022-01-27 15:42:00,,0833.1,5.00,0.00,22.0,21.6,00.0,30.9,23.6,09.5,0000.0,0012.59,0007.90,0007.55
2022-01-27 15:43:00,,0833.1,5.00,0.00,22.0,21.5,00.0,30.9,23.6,09.6,0000.0,0012.76,0007.95,0007.60
2022-01-27 15:44:00,,0833.2,5.00,0.00,21.9,21.4,00.0,30.9,23.6,09.8,0000.0,0012.95,0007.98,0007.61
2022-01-27 15:45:00,,0833.2,5.01,0.00,21.9,21.3,00.0,30.9,23.5,10.0,0000.0,0012.49,0007.98,0007.61
2022-01-27 15:46:00,,0833.3,5.00,0.00,21.9,21.3,00.0,30.9,23.5,10.2,0000.0,0012.36,0008.00,0007.63
2022-01-27 15:47:00,,0833.2,5.00,0.00,21.8,21.2,00.0,30.8,23.4,10.3,0000.0,0012.50,0007.99,0007.63
2022-01-27 15:48:00,,0833.3,4.98,0.00,21.8,21.3,00.0,30.8,23.4,10.5,0000.0,0012.34,0007.98,0007.62
2022-01-27 15:49:00,,0833.3,5.02,0.00,21.9,22.0,00.0,30.9,23.6,10.6,0000.0,0012.37,0007.98,0007.60
2022-01-27 15:50:00,,0833.4,5.00,0.00,22.0,22.8,00.0,30.9,24.0,10.7,0000.0,0012.32,0007.94,0007.55
2022-01-27 15:51:00,,0833.4,5.00,0.00,22.2,23.2,00.0,31.0,24.2,10.8,0000.0,0012.23,0007.86,0007.49
2022-01-27 15:52:00,,0833.4,5.01,0.00,22.3,22.9,00.0,31.0,24.2,10.8,0000.0,0012.15,0007.80,0007.43
2022-01-27 15:53:00,,0833.4,5.00,0.00,22.3,22.6,00.0,31.0,24.1,10.9,0000.0,0012.09,0007.70,0007.37
2022-01-27 15:54:00,,0833.4,4.99,0.00,22.2,22.3,00.0,31.0,24.1,10.9,0000.0,0012.27,0007.60,0007.29
2022-01-27 15:55:00,,0833.5,5.01,0.00,22.2,22.0,00.0,31.0,24.0,11.0,0000.0,0011.94,0007.55,0007.24
2022-01-27 15:56:00,,0833.5,5.00,0.00,22.2,21.7,00.0,31.0,23.9,11.1,0000.0,0011.92,0007.52,0007.20
2022-01-27 15:57:00,,0833.5,5.00,0.00,22.2,21.6,00.0,31.0,23.8,11.3,0000.0,0011.80,0007.43,0007.11
2022-01-27 15:58:00,,0833.6,4.99,0.00,22.1,21.5,00.0,31.0,23.8,11.4,0000.0,0011.34,0007.35,0007.02
2022-01-27 15:59:00,,0833.6,4.99,0.00,22.1,21.4,00.0,31.0,23.7,11.6,0000.0,0011.19,0007.26,0006.95
